Wind_Speed
9 11 14 15 15 14 15 16 15 15 16 14 13 13 13 13 15 15 10 8 6 7 10 12 11 10 9 9 11 11 11 8 6 8 11 9 11 12 10 13 13 10 11 12 12 12 12 12 12 11 11 11 11 11 12 11 12 13 12 13 13 11 12 12 12 13 14 15 16 16 15 15 15 17 18 19 20 21 21 22 22 23 22 23 24 23
10 15 16 16 15 14 14 15 16 15 13 13 13 14 15 14 14 14 12 11 10 10 10 11 11 11 10 9 12 13 13 12 8 7 11 11 11 11 8 12 14 11 12 14 14 13 12 12 13 13 12 11 11 12 12 12 13 14 14 14 14 13 13 13 13 14 14 15 16 17 16 16 15 16 17 18 19 21 21 22 22 23 23 23 24 25
14 18 18 15 15 15 15 14 15 14 12 14 14 15 15 13 15 14 10 9 9 10 11 11 11 11 10 9 13 16 14 13 12 9 10 14 13 11 9 12 15 13 13 14 13 13 12 11 12 14 13 11 12 13 13 13 14 15 15 15 15 15 14 14 15 15 15 15 16 17 17 17 17 16 17 18 19 20 20 22 23 23 23 23 25 26
17 15 13 13 14 15 16 14 13 12 13 15 14 16 15 13 15 11 11 8 10 13 12 12 12 12 13 13 13 15 15 13 14 12 11 17 17 13 11 13 14 13 13 14 14 13 14 13 12 12 12 11 12 13 14 15 15 17 17 16 16 16 15 16 17 16 17 17 17 18 19 19 18 18 18 20 21 21 20 22 23 23 23 23 25 27
19 12 7 9 9 11 13 13 13 14 15 15 15 16 14 14 16 8 5 8 12 15 12 8 10 12 13 13 9 10 11 10 13 15 14 16 17 13 9 9 13 15 13 13 13 12 13 14 12 10 10 10 11 13 14 15 16 19 20 19 18 18 17 18 18 18 19 19 19 20 21 21 21 21 20 20 20 21 21 23 23 23 23 23 25 27
18 14 9 10 8 8 11 12 14 13 14 16 15 16 14 14 15 11 5 7 11 14 12 7 6 9 8 7 5 7 8 9 13 16 16 15 15 14 11 11 15 18 14 11 12 12 12 12 10 10 10 11 12 14 16 17 18 20 22 22 21 20 20 20 20 20 21 22 21 21 22 22 22 22 21 20 19 20 22 23 23 23 24 24 25 27
17 12 7 10 10 10 11 13 12 10 14 14 8 11 18 11 7 11 11 10 14 13 9 7 6 8 7 6 5 4 6 11 15 15 15 14 13 14 14 13 15 18 17 12 10 10 11 10 10 12 13 14 16 18 19 21 22 22 22 23 24 23 22 22 22 22 23 23 23 22 22 22 22 22 21 20 20 21 22 23 24 24 24 25 25 26
14 11 5 7 10 11 14 17 14 10 14 12 5 11 16 9 5 11 14 14 17 14 8 7 7 9 10 6 3 3 4 9 15 15 13 14 13 13 13 12 13 16 17 13 9 7 6 8 10 13 16 18 19 21 23 24 26 24 23 26 27 26 25 23 23 24 25 25 24 23 24 24 23 23 23 22 21 21 22 23 24 24 25 25 25 26
11 13 10 9 9 10 16 18 12 9 11 8 7 13 11 7 10 11 12 14 15 14 9 6 6 9 8 3 3 7 8 10 13 12 11 12 12 12 11 10 11 12 12 13 13 10 9 10 12 14 17 20 21 24 25 26 26 26 27 29 29 27 27 26 25 25 26 26 25 25 26 25 24 24 23 24 23 22 23 24 24 25 25 26 26 26
7 10 11 11 12 14 16 12 3 8 12 9 10 12 9 10 11 10 12 14 14 14 12 10 9 7 4 2 6 9 10 13 14 12 10 10 10 9 9 9 9 10 10 11 12 12 12 14 15 17 19 20 22 24 24 24 25 26 28 31 29 26 27 28 26 26 27 27 27 26 26 26 25 24 24 25 25 25 26 26 25 26 26 26 27 27
10 9 8 10 12 15 16 12 6 8 14 13 11 9 10 10 10 10 8 9 10 10 12 16 14 9 4 5 9 9 9 10 11 12 11 12 9 7 8 8 8 10 11 10 10 11 13 14 16 17 17 17 18 20 21 22 23 24 25 28 28 25 26 28 26 26 28 29 28 27 26 26 25 25 25 25 26 27 28 28 28 27 27 27 28 28
15 12 11 11 13 14 15 12 8 8 10 11 10 9 10 8 9 8 5 6 6 6 11 15 13 11 8 5 6 7 6 7 7 7 7 10 9 7 8 7 7 10 12 11 10 11 13 13 13 15 15 13 13 16 18 19 20 20 20 24 26 25 26 27 28 28 29 30 29 27 26 25 25 25 25 25 26 27 28 28 28 28 28 28 28 29
17 17 15 13 14 13 13 13 12 10 11 10 9 10 9 6 7 6 4 6 7 9 16 12 6 10 9 2 4 3 2 4 9 8 5 8 7 6 7 6 8 11 11 12 11 10 12 12 11 14 15 11 9 12 14 14 15 15 17 22 25 25 24 25 29 30 30 30 30 28 25 25 26 25 24 24 26 27 27 28 28 27 28 29 30 29
16 18 17 15 16 14 11 14 16 13 12 12 12 10 8 6 5 5 6 7 7 10 14 7 4 10 7 2 3 2 2 3 6 8 8 9 7 6 8 7 9 10 10 10 10 10 11 11 10 13 14 10 8 9 9 10 11 12 15 21 25 26 24 25 30 31 30 30 30 28 26 25 26 25 24 25 26 26 27 27 27 27 28 30 30 29
12 11 13 15 16 17 15 13 16 15 12 12 13 12 11 10 8 8 6 6 7 7 7 7 5 8 5 2 4 5 5 4 1 3 8 10 8 7 7 6 8 10 9 8 10 10 11 11 10 12 13 10 8 7 5 6 8 10 13 17 23 26 26 27 30 31 30 30 30 28 26 24 24 24 25 26 26 27 27 26 27 28 29 31 31 30
11 9 8 13 10 11 14 11 11 14 14 11 13 15 13 10 10 10 9 10 12 9 5 7 4 5 3 2 5 4 4 4 5 8 9 9 8 8 7 7 8 10 9 8 10 10 10 10 9 11 13 12 9 6 4 3 4 7 11 16 20 23 25 27 29 29 29 29 29 27 25 23 22 23 24 26 26 27 27 26 28 29 30 32 32 32
8 9 6 11 6 6 9 8 9 13 11 7 10 9 7 9 11 11 10 10 11 8 6 7 5 5 5 1 3 3 4 5 8 10 9 7 8 7 7 7 8 10 8 8 11 11 9 9 9 10 12 12 9 7 4 1 3 6 12 15 18 20 24 27 27 26 27 27 27 26 24 22 22 22 24 25 26 26 27 27 28 29 30 32 34 33
8 11 5 8 10 11 10 10 11 13 9 9 11 6 7 11 8 6 8 6 6 5 5 6 3 5 2 3 3 3 2 4 6 8 9 8 8 7 6 8 9 10 9 8 11 12 10 9 8 9 11 12 9 8 6 1 4 7 12 14 16 19 22 24 25 24 24 25 26 25 24 22 22 22 23 24 25 27 27 27 27 28 30 32 33 34
9 10 7 8 13 12 10 8 12 13 11 12 15 12 11 9 6 6 7 5 5 5 2 2 0 3 2 3 2 1 1 4 5 8 8 8 8 7 7 9 10 10 9 9 11 11 9 9 7 7 10 11 8 7 7 2 3 8 13 15 15 18 20 21 22 22 22 22 23 22 22 22 22 21 22 23 25 26 28 28 28 28 30 30 31 33
8 7 8 9 9 8 10 9 11 14 14 12 12 13 12 11 9 7 7 7 8 6 2 2 3 2 3 5 5 2 0 3 7 10 8 9 8 8 10 11 10 10 9 9 11 11 10 9 7 5 7 9 7 6 6 2 5 9 13 15 15 16 18 20 20 20 20 20 20 20 21 22 22 21 22 23 24 26 27 29 29 28 29 29 30 32
9 8 8 7 7 7 7 8 9 9 10 13 11 9 10 11 9 7 9 10 9 6 3 0 2 1 1 2 3 3 4 6 6 7 8 9 8 10 13 12 11 12 10 8 11 12 12 9 7 5 5 8 7 5 5 1 6 9 12 13 14 14 16 17 18 18 19 18 19 19 20 22 23 22 22 22 24 25 27 28 29 28 28 29 29 30
12 10 9 8 10 11 7 6 9 9 6 9 11 8 8 9 9 8 8 10 12 11 6 3 1 4 5 8 9 9 9 9 7 4 7 10 10 11 12 11 12 13 11 8 10 13 13 10 8 6 5 6 6 4 2 3 7 8 10 12 13 13 13 15 16 16 16 17 17 18 19 21 22 23 22 22 23 25 26 28 29 28 28 29 29 30
13 11 12 13 12 13 11 8 10 11 7 8 10 10 11 11 10 10 6 8 13 12 10 10 3 3 1 6 7 8 8 7 5 5 7 10 10 10 10 11 12 12 10 9 10 13 13 12 8 6 6 7 5 3 1 3 6 7 8 10 12 12 12 13 14 14 14 15 15 17 18 19 22 23 23 22 23 25 26 28 28 27 27 29 29 30
13 14 14 14 13 14 17 15 14 11 9 11 11 12 14 12 11 12 8 10 12 10 11 11 4 3 5 8 6 5 5 3 3 6 9 11 10 9 10 10 11 10 9 10 10 12 15 13 9 7 7 7 6 4 2 3 6 6 7 9 10 11 12 12 12 12 12 14 15 16 17 18 21 23 23 23 23 24 26 27 27 26 27 29 29 29
8 11 12 12 11 11 13 13 11 10 8 11 12 13 13 12 12 11 8 10 11 7 8 9 3 1 6 5 3 3 2 4 7 8 11 12 10 9 9 9 10 10 9 10 11 13 15 12 8 7 7 7 7 6 4 2 3 5 7 8 10 11 11 12 12 12 13 14 15 15 16 17 18 20 21 22 22 23 25 26 26 25 27 29 27 26
9 7 7 9 9 7 8 8 8 7 9 13 14 14 13 12 12 11 8 9 8 7 8 7 4 4 6 4 6 5 5 5 6 8 9 10 9 9 9 8 9 10 9 10 11 14 14 12 9 8 7 6 7 7 5 4 2 3 7 10 12 12 12 12 11 10 11 12 11 13 15 16 16 18 19 20 21 22 22 24 24 23 25 27 25 25
13 10 9 12 13 12 12 12 10 11 14 15 14 12 12 12 11 11 9 8 8 11 8 4 6 7 7 5 9 7 6 6 6 9 9 7 8 9 8 7 8 9 9 8 10 13 13 11 11 10 7 6 6 6 5 4 3 2 4 9 13 14 13 12 10 8 9 9 9 11 14 14 14 15 16 17 19 21 21 22 23 23 25 26 26 27
15 16 15 16 18 18 18 17 15 16 17 18 16 14 13 13 11 10 11 9 9 11 7 4 8 10 5 5 8 7 7 8 9 9 7 6 7 8 8 7 8 9 10 8 9 10 10 8 8 9 8 8 6 5 4 3 4 5 4 5 9 12 13 12 9 7 7 8 8 9 11 11 11 12 13 15 18 20 20 21 22 23 24 25 26 26
17 19 18 18 20 20 19 19 19 19 20 21 20 18 16 15 14 13 13 13 12 11 10 8 8 9 4 4 3 4 9 11 10 6 6 7 7 9 10 8 8 10 10 9 8 8 8 7 6 7 9 9 6 5 4 3 5 6 5 5 6 9 11 9 5 5 6 6 7 8 8 8 9 11 12 14 17 19 18 20 22 23 23 24 25 23
17 18 18 19 21 21 20 20 20 21 22 22 21 21 18 18 19 17 15 15 13 11 10 8 7 9 6 2 1 3 7 8 6 5 7 10 9 9 10 9 8 7 8 7 6 6 7 7 7 8 9 8 7 8 7 5 6 5 4 5 3 4 7 6 4 3 5 4 6 7 7 7 8 10 12 14 16 18 19 22 24 23 23 24 24 21
16 17 15 16 20 21 20 21 22 21 21 22 21 21 19 20 21 19 17 16 12 11 11 9 10 11 4 1 3 5 7 7 6 8 10 12 11 10 9 8 6 4 5 7 6 5 7 8 8 8 8 10 9 9 8 6 6 5 5 5 2 4 6 6 6 5 5 4 4 5 6 7 8 10 12 14 16 18 20 23 22 21 23 24 21 18
15 15 13 14 18 20 19 19 20 20 20 23 23 21 20 20 20 19 18 15 11 10 11 9 8 7 3 4 5 8 10 10 10 10 11 10 10 10 7 5 5 6 9 9 7 7 8 9 8 7 7 8 9 9 8 7 6 5 4 4 2 3 5 5 6 7 6 4 4 4 6 7 8 10 12 14 16 17 20 22 20 19 20 19 17 16
13 14 14 14 16 19 18 18 20 20 19 20 21 20 19 20 21 20 19 17 14 11 10 10 8 6 5 5 5 7 9 10 10 11 11 9 10 9 6 2 2 5 10 10 8 8 9 8 7 7 6 7 8 7 7 7 6 4 3 2 1 2 4 4 4 4 4 4 4 6 7 8 9 10 11 12 14 16 18 18 18 18 17 16 15 16
16 17 17 16 17 19 18 19 21 18 15 15 17 16 16 17 19 19 19 19 17 14 11 10 9 7 6 5 5 5 5 6 9 10 9 10 11 9 6 3 3 6 8 9 8 8 9 7 6 5 5 6 8 8 7 6 5 4 2 2 3 4 6 6 6 5 5 5 6 7 7 7 6 8 10 10 12 14 15 15 14 14 15 16 17 17
20 21 20 19 20 19 18 18 17 14 15 18 18 15 14 14 15 17 19 18 17 15 12 10 9 8 6 6 7 8 6 6 9 9 8 10 10 6 5 4 4 6 8 9 7 8 8 6 6 5 5 5 7 8 8 7 6 4 2 2 4 6 7 9 9 9 9 8 7 7 7 6 6 8 9 10 12 13 14 14 14 14 14 16 17 17
23 22 21 20 20 18 17 16 13 13 17 19 17 16 17 15 14 16 18 15 13 13 12 11 11 11 9 8 6 6 6 6 9 10 10 10 9 6 4 7 8 8 10 9 6 7 9 5 4 6 6 4 6 8 8 7 6 4 3 3 3 5 6 8 8 9 11 11 9 10 9 8 8 9 10 11 12 12 12 13 15 15 15 15 15 15
25 24 22 22 22 20 19 19 18 19 20 19 18 18 16 15 13 13 15 13 11 12 13 13 13 12 11 9 6 6 3 3 5 9 10 8 6 3 4 10 12 11 10 7 4 8 10 6 3 5 7 6 6 7 7 7 7 5 4 4 4 4 5 6 7 8 9 10 10 11 10 10 10 10 10 11 12 12 13 13 14 15 16 16 16 15
29 28 25 23 22 21 20 20 18 16 16 18 20 19 15 14 14 15 17 17 15 14 14 14 13 11 10 9 9 11 7 6 9 10 10 8 7 5 6 10 13 11 7 3 5 10 11 7 3 5 8 7 6 6 7 7 7 6 5 4 4 4 4 5 6 7 8 8 7 7 7 8 10 9 9 10 12 13 14 13 13 14 15 17 18 18
31 30 28 27 25 23 22 21 17 16 16 18 18 18 17 17 15 17 21 20 15 12 12 13 11 10 11 11 11 11 8 8 11 11 9 8 7 7 9 11 8 7 5 6 8 10 9 7 5 5 7 7 5 5 6 6 8 8 6 5 5 4 4 5 5 6 7 9 7 4 3 6 9 9 9 11 13 14 14 14 14 14 14 16 18 19
27 29 31 31 28 25 24 23 21 19 18 17 15 15 17 17 13 13 15 14 12 9 11 14 12 9 11 14 13 11 8 6 9 9 8 6 4 9 15 12 8 8 9 10 9 8 7 7 7 6 6 6 5 5 5 6 8 8 8 8 7 7 7 6 6 6 7 9 8 5 4 5 7 8 10 12 14 15 15 14 14 14 15 16 17 19
20 24 28 31 30 27 27 25 23 21 17 14 13 10 9 11 13 12 7 4 7 5 6 12 12 7 9 12 10 9 7 7 10 12 9 6 7 11 14 9 9 11 12 11 11 9 8 9 8 6 7 6 5 6 7 8 8 8 9 9 9 9 9 8 8 8 8 8 8 7 6 5 5 7 9 11 13 14 15 15 16 16 16 16 17 18
17 19 21 27 29 26 24 21 21 20 14 9 9 10 9 8 10 11 5 3 7 5 2 9 14 11 9 10 10 10 11 12 14 12 8 8 11 12 10 8 11 14 13 12 12 11 9 10 9 9 9 7 6 7 7 8 9 9 9 10 10 11 11 10 10 10 9 8 9 8 7 5 6 7 9 10 11 13 15 16 17 17 18 17 17 18
18 17 18 22 22 20 20 17 13 14 13 6 3 8 14 11 7 9 9 6 10 11 8 11 17 16 12 11 10 10 12 14 12 7 7 9 12 15 13 14 16 17 14 11 13 13 11 11 10 11 11 9 8 8 7 8 9 9 10 12 12 12 12 11 12 12 11 11 10 9 8 7 8 9 10 11 12 13 15 16 17 18 19 19 19 19
19 18 19 21 17 13 15 15 10 12 15 12 5 2 9 11 8 9 9 6 7 11 11 11 14 15 15 16 14 13 14 16 14 9 9 11 12 17 19 20 17 14 12 12 15 15 12 11 11 11 11 10 9 9 8 8 9 9 11 12 13 12 12 12 13 12 12 12 11 10 9 9 9 10 11 12 13 13 14 15 16 18 19 20 20 20
17 17 20 23 21 17 15 13 10 9 10 13 10 5 9 11 11 10 11 9 9 10 10 10 12 13 15 17 16 16 17 18 14 10 10 12 15 19 21 20 14 11 11 14 17 16 13 12 11 10 11 11 10 10 10 9 9 10 11 11 12 12 12 12 12 11 11 12 12 11 11 10 11 11 12 13 13 14 15 15 16 17 18 19 19 20
15 16 19 20 23 26 24 19 16 13 10 12 14 9 7 13 16 16 14 13 13 13 13 13 15 16 17 18 17 16 16 16 12 11 16 20 20 20 21 18 12 9 12 16 16 15 14 13 12 11 11 11 12 11 11 11 11 11 10 9 9 10 10 10 10 10 11 11 11 11 11 12 12 12 12 13 14 15 16 16 16 17 18 18 19 20
18 20 19 15 17 22 22 18 17 17 14 13 16 16 14 16 19 21 19 17 17 19 19 18 18 19 21 22 21 20 18 15 12 15 21 23 21 20 22 19 13 10 14 16 15 14 14 13 13 12 12 11 11 11 10 10 11 10 9 8 8 9 9 10 10 11 11 11 11 11 11 11 12 12 12 13 13 14 15 16 17 17 18 18 19 19
22 21 17 15 16 18 19 17 17 18 17 15 18 22 22 19 19 21 21 22 22 24 24 24 22 20 20 21 22 23 22 17 14 18 23 23 22 21 21 18 15 14 16 16 15 15 15 14 13 13 12 11 10 10 10 10 9 9 9 8 9 9 9 9 10 10 11 12 12 12 11 11 12 12 12 12 13 13 14 16 17 18 18 18 18 18
21 20 18 17 18 19 22 23 19 17 18 18 19 23 23 22 22 24 25 26 25 26 26 25 23 21 21 19 18 17 19 18 17 21 24 22 21 20 18 15 15 17 16 15 15 15 14 14 13 12 11 11 10 10 10 9 8 8 9 9 9 9 9 9 9 10 11 12 13 14 14 13 13 14 14 14 13 13 14 15 17 17 17 17 17 17
18 21 21 20 18 16 19 21 18 15 18 18 17 16 18 21 24 26 28 28 27 27 27 27 26 25 24 21 17 15 17 17 17 22 25 22 19 19 17 15 15 17 16 15 14 14 13 13 13 12 11 10 10 10 10 9 8 9 9 10 10 9 9 9 9 10 11 12 13 15 15 14 14 15 15 14 14 14 14 15 17 18 18 17 17 17
19 21 22 23 21 18 17 17 14 13 15 16 15 13 14 19 24 26 27 27 26 26 27 28 28 28 27 23 20 18 18 18 20 23 25 24 21 20 19 16 15 16 16 15 13 13 12 11 12 11 11 10 10 10 10 9 9 10 10 11 11 11 11 11 11 11 12 13 13 14 14 14 14 15 15 15 16 16 16 16 17 18 18 18 17 18
Wind_Direction
212 226 232 232 236 241 241 239 248 268 278 285 296 294 282 278 279 276 248 210 239 271 286 287 276 286 285 267 277 287 293 282 222 243 262 253 248 242 233 238 243 253 252 245 250 257 258 259 256 249 246 243 242 241 242 245 243 247 247 241 243 242 236 228 220 219 217 212 206 201 198 196 187 182 185 183 180 182 180 179 179 180 180 178 178 177
217 230 235 237 238 242 252 249 254 265 272 284 289 281 278 277 276 273 252 224 242 274 284 286 276 271 275 268 266 269 277 277 242 229 268 272 261 261 254 240 245 251 249 249 253 262 266 258 255 252 249 247 246 243 245 247 247 250 248 240 238 239 237 233 225 221 220 216 212 208 203 201 196 188 189 188 186 185 182 180 181 182 182 180 179 178
218 234 234 239 244 245 253 254 263 275 280 283 279 273 273 272 271 258 233 215 234 270 278 276 280 278 274 275 273 265 263 268 257 234 244 254 251 250 247 239 240 245 251 254 255 262 264 256 256 257 254 252 249 245 243 244 246 249 247 241 239 238 234 233 229 223 219 217 214 212 208 205 202 194 191 193 191 189 187 185 184 184 183 182 181 180
225 240 234 235 244 243 250 255 264 275 273 270 268 269 264 265 278 246 192 206 259 275 271 264 276 284 278 275 272 260 256 262 266 266 253 248 254 257 251 240 241 252 255 255 261 264 263 260 263 264 261 257 252 250 250 248 247 249 248 244 243 240 233 231 230 224 220 217 214 212 210 207 206 201 198 197 192 187 190 191 187 185 185 184 184 183
244 266 264 242 243 239 251 262 263 265 267 262 250 257 264 262 273 270 201 229 258 262 252 253 279 281 279 277 260 226 231 243 251 268 273 258 255 257 257 252 259 270 262 255 265 270 270 271 272 266 262 263 258 256 260 257 253 252 250 247 242 238 233 229 227 225 221 217 213 212 210 209 207 205 205 203 197 189 189 192 189 187 188 187 186 186
253 266 261 246 252 250 254 261 259 256 263 266 251 241 251 266 274 290 293 230 244 250 218 197 284 288 289 293 264 201 205 236 252 269 281 273 257 246 247 255 264 271 268 260 261 265 272 274 277 276 271 277 273 269 269 263 258 254 249 245 240 237 234 228 225 224 222 218 216 214 212 212 210 209 208 206 203 195 191 193 194 191 191 190 189 188
251 252 240 236 250 252 248 253 251 246 254 265 280 248 236 239 275 287 287 266 269 270 210 197 285 285 284 309 305 249 235 260 271 283 288 279 267 254 254 259 263 268 270 267 257 261 271 273 288 296 290 290 286 280 274 265 261 259 252 246 240 236 234 229 225 224 224 221 218 217 215 214 212 213 213 208 206 202 196 196 197 195 194 193 191 191
240 244 231 231 249 249 247 248 235 232 255 255 310 292 251 233 273 284 286 268 268 280 243 231 275 276 278 297 294 262 264 274 279 288 286 276 274 268 264 266 266 272 279 283 279 278 284 281 288 295 292 290 287 281 276 269 264 259 253 247 239 232 230 228 225 224 225 223 220 219 218 215 212 214 215 211 208 206 202 199 199 198 197 196 194 193
214 237 235 232 244 240 246 249 223 212 254 266 315 314 299 303 304 293 285 273 285 309 294 265 288 289 290 286 247 262 259 266 276 282 284 281 280 271 267 272 272 275 282 286 291 301 308 299 293 291 288 287 285 280 275 271 263 255 251 245 238 230 226 225 224 223 224 223 221 220 219 218 215 213 213 212 211 209 207 204 203 202 200 198 198 196
205 243 237 230 233 234 249 269 246 217 248 288 329 320 302 293 288 279 279 286 312 326 306 300 309 305 320 307 278 276 259 259 263 262 278 287 283 275 268 271 274 278 282 281 291 300 300 298 296 292 291 291 287 279 274 270 259 252 249 242 235 228 223 222 222 223 223 223 222 221 221 221 219 216 213 212 212 210 210 208 206 205 203 200 200 200
256 270 249 240 238 241 262 290 304 249 260 289 309 294 273 269 270 274 295 311 317 315 295 297 300 291 284 263 267 278 282 281 263 254 276 284 282 285 276 275 278 282 289 290 293 294 290 295 297 295 297 296 285 273 270 267 257 250 247 240 233 226 220 219 220 221 222 222 222 223 223 223 222 221 219 217 216 213 212 211 209 208 206 203 202 202
251 252 243 243 243 249 266 276 273 249 254 278 286 275 277 283 278 281 314 304 280 281 280 280 285 286 282 250 234 257 292 302 271 263 282 272 267 280 284 293 283 270 284 296 296 294 297 305 307 310 314 306 285 273 268 264 257 249 241 234 229 224 221 218 217 219 220 220 222 223 223 222 222 223 222 221 221 219 216 214 212 211 209 206 204 204
234 237 241 243 238 242 252 252 254 244 226 237 259 264 270 279 276 272 282 274 253 261 269 259 248 275 286 244 192 217 304 292 282 286 262 231 241 263 267 271 262 261 281 297 297 300 310 318 319 321 324 316 297 285 273 265 259 245 229 222 218 218 221 217 214 217 218 219 221 221 220 221 223 224 223 221 223 223 220 216 214 213 212 210 208 206
235 230 229 235 233 221 226 242 242 231 220 228 241 250 269 286 279 263 264 266 255 260 262 236 221 272 286 89 126 121 137 226 285 294 259 236 243 255 250 247 257 270 286 296 298 306 317 319 319 326 328 323 309 298 287 276 260 239 221 211 204 207 216 216 212 214 217 218 219 220 219 219 222 224 223 222 222 223 222 219 217 215 214 213 212 211
265 244 216 226 235 212 210 241 250 253 256 252 250 256 271 274 254 253 285 297 292 294 266 220 240 294 305 163 171 157 172 198 184 231 243 247 248 254 261 262 272 282 291 300 302 309 318 316 316 328 335 332 316 307 313 302 263 234 215 201 195 201 210 211 210 212 216 217 216 218 220 221 224 225 223 223 223 222 222 220 219 219 217 215 214 214
279 292 232 223 237 202 203 233 252 260 265 265 271 262 254 269 276 279 302 301 294 309 293 247 272 355 32 173 213 192 187 236 242 231 236 239 235 247 264 265 278 290 297 306 304 308 317 313 314 329 339 341 331 316 325 318 253 211 192 188 190 197 202 203 206 211 214 214 213 216 222 225 227 228 226 224 223 223 223 221 221 223 222 220 217 213
266 298 245 201 216 203 218 249 232 232 245 260 280 273 253 287 307 307 306 305 304 314 313 313 359 72 93 69 267 219 191 232 251 253 248 229 225 244 270 275 291 301 299 299 296 301 310 308 314 331 340 346 343 332 325 276 187 181 182 187 193 195 197 199 204 209 210 211 212 215 221 227 229 231 230 227 225 225 226 224 222 221 220 222 220 214
263 284 246 187 237 239 231 264 253 244 263 255 256 303 324 292 287 294 297 309 320 312 304 322 31 124 152 298 236 193 167 200 227 256 254 243 239 248 275 281 287 295 296 291 284 288 299 302 309 327 338 347 351 344 333 272 189 192 190 192 198 197 197 199 203 208 209 210 213 215 221 227 230 231 231 231 227 225 225 225 222 218 215 218 218 214
256 267 244 219 251 235 204 247 259 248 256 256 263 295 315 291 262 273 298 309 297 291 271 285 42 149 299 319 197 216 309 211 253 285 258 243 253 260 273 275 276 287 291 287 277 276 287 293 300 320 335 347 356 354 341 313 185 183 185 187 192 193 197 200 203 206 207 208 211 215 221 229 232 232 231 231 227 224 224 222 219 216 215 217 217 215
250 257 254 243 243 206 186 224 248 237 226 231 260 278 276 271 265 270 294 294 290 299 291 307 359 30 30 59 94 92 12 235 300 309 269 245 261 279 286 282 276 278 273 274 279 276 272 280 293 309 330 345 354 3 357 338 159 155 167 179 185 189 195 198 197 198 198 202 210 216 223 230 232 230 228 228 226 225 224 222 220 217 216 219 219 215
246 247 255 250 241 234 218 224 255 262 225 210 230 257 269 277 282 285 287 285 294 305 289 332 51 157 158 124 171 233 260 257 286 302 271 258 264 281 288 286 279 275 269 269 279 275 262 265 284 289 312 341 348 360 15 96 159 153 154 163 170 178 187 191 191 193 197 205 214 218 224 227 228 228 227 227 227 227 225 223 223 220 217 219 220 217
242 244 250 244 246 260 253 225 253 269 244 232 250 270 291 294 291 287 289 299 306 303 308 351 135 174 201 232 248 267 273 268 265 252 251 257 265 279 281 274 270 269 268 266 268 267 259 257 278 285 291 324 338 342 6 134 162 165 159 159 162 169 178 183 188 194 202 211 217 220 225 227 226 226 227 227 227 226 224 223 224 222 217 215 218 220
239 249 256 250 246 254 251 251 267 269 274 282 274 276 287 288 283 283 290 306 304 308 330 337 338 122 234 275 290 299 286 280 262 236 257 272 275 282 280 270 264 259 258 259 261 265 258 250 267 286 287 303 325 329 289 171 170 171 171 171 172 174 178 181 187 197 206 213 217 221 226 227 226 226 226 227 226 224 222 222 223 222 218 214 215 219
238 241 254 258 257 261 264 271 271 257 265 280 274 274 277 275 281 290 302 308 309 329 342 329 347 65 324 304 310 302 281 284 277 262 282 294 289 283 283 273 258 251 257 261 262 263 257 252 265 287 287 291 301 303 283 190 187 185 182 181 178 179 183 186 196 207 214 219 220 222 224 227 226 223 223 225 223 221 220 219 217 216 217 216 211 210
259 236 241 258 264 262 267 275 264 237 246 273 280 276 267 268 275 280 299 305 304 334 336 314 322 1 310 296 260 270 268 260 278 282 284 298 311 303 289 269 251 253 262 265 266 265 266 272 280 280 282 288 292 293 290 253 215 203 199 193 188 191 198 203 211 219 225 228 228 227 226 229 229 224 223 226 223 219 220 219 214 211 216 217 211 208
289 263 235 254 267 256 256 276 283 274 272 275 280 277 270 275 273 270 292 297 299 338 342 332 343 319 305 273 230 273 315 291 296 309 293 296 316 315 298 269 250 254 263 273 276 275 284 296 286 272 279 286 293 301 295 287 281 234 219 214 211 215 224 230 232 234 240 242 241 239 233 229 229 226 221 221 219 215 216 218 214 211 215 216 215 218
270 272 257 260 268 270 274 283 287 281 273 268 275 280 274 271 269 272 283 283 304 323 324 2 6 323 296 235 211 239 299 309 313 318 307 298 307 314 306 278 261 263 270 281 282 282 295 302 285 280 287 280 288 307 306 307 330 324 245 230 226 226 232 238 244 248 252 253 251 248 239 228 223 223 218 212 211 211 211 213 212 211 214 216 217 217
258 262 261 263 264 264 267 269 265 265 267 271 278 281 272 266 268 275 278 281 298 302 299 343 338 315 296 180 183 214 254 276 293 307 320 306 297 316 319 296 284 281 279 283 283 287 301 301 287 286 278 265 267 278 286 314 327 330 321 266 236 225 228 236 246 254 254 251 247 245 243 234 222 222 220 213 211 211 208 209 214 216 216 217 219 215
253 259 260 262 265 265 265 265 263 263 266 268 271 272 271 270 271 272 274 280 283 283 293 302 300 307 304 179 185 243 254 271 282 294 331 324 302 321 329 313 299 292 290 292 287 292 305 303 295 287 271 268 284 296 303 314 297 303 330 310 258 222 220 228 236 247 248 246 242 233 230 230 220 216 217 213 210 207 204 208 213 214 212 212 216 215
244 258 262 265 271 273 272 272 273 273 272 269 265 263 262 264 269 270 266 269 274 280 290 289 299 321 318 255 319 246 242 281 284 250 307 323 312 318 326 319 309 300 298 301 293 296 307 304 298 297 296 305 326 333 330 313 282 289 343 339 297 194 187 193 184 224 249 247 235 226 218 218 219 217 213 209 205 204 207 209 205 202 205 208 209 209
239 252 264 270 273 272 270 271 274 275 275 274 270 266 265 264 267 269 267 265 264 273 284 292 306 313 308 341 320 237 234 292 286 257 295 316 310 309 313 313 319 336 333 322 320 324 316 303 298 309 324 328 331 331 324 310 295 308 353 3 9 136 155 169 169 193 241 258 234 218 211 213 216 214 209 206 204 205 212 211 198 195 207 209 204 203
246 251 261 269 270 269 268 272 276 277 273 271 269 266 264 264 263 263 267 268 257 260 274 277 283 298 352 10 307 256 259 286 282 277 292 302 303 301 298 305 323 348 347 327 315 326 316 299 305 325 330 325 327 327 318 310 312 319 334 352 21 151 173 182 175 189 221 251 240 212 205 206 205 204 204 207 208 210 216 212 197 194 207 209 203 203
255 255 261 267 270 270 270 273 279 279 271 264 264 264 260 260 261 260 262 263 255 251 258 259 267 292 320 328 294 251 259 277 281 284 288 294 301 295 289 308 262 291 321 319 309 321 310 292 311 338 332 325 331 331 323 321 324 319 301 296 287 213 216 224 222 211 212 223 229 223 216 207 198 198 202 208 212 215 221 219 207 200 204 207 210 212
257 260 266 268 268 271 273 275 279 278 268 261 266 269 266 265 266 262 258 257 253 248 248 254 267 275 275 299 304 261 243 258 269 274 285 300 303 289 289 311 210 243 299 313 307 308 302 301 334 346 327 328 329 323 326 335 338 338 318 277 262 256 251 253 254 250 247 241 234 233 227 215 203 205 208 213 219 224 227 227 223 217 211 209 213 217
254 258 262 261 261 268 271 270 271 267 264 268 271 271 276 280 277 272 268 259 250 246 243 243 254 264 268 288 291 270 251 246 258 265 274 287 298 302 293 280 236 247 288 302 294 284 287 310 343 334 320 330 325 314 314 323 331 344 345 292 263 263 262 260 260 261 263 258 244 238 231 217 215 219 214 217 224 226 226 226 226 227 225 219 215 215
251 252 255 255 256 261 260 256 256 261 266 271 270 267 272 275 272 272 271 258 243 243 246 245 255 264 267 269 264 260 273 278 274 275 271 275 301 327 286 250 251 267 287 297 288 269 276 303 339 319 313 319 316 313 310 312 321 329 329 309 281 276 270 267 267 264 261 254 241 239 238 229 227 230 228 228 228 224 222 226 225 223 226 228 225 220
244 245 249 251 251 254 255 254 257 262 264 262 261 264 266 261 257 267 273 265 249 247 251 255 260 259 255 255 231 208 245 288 270 275 276 266 275 288 230 238 258 282 303 310 275 258 277 306 337 304 302 304 308 312 307 307 315 319 320 320 303 291 283 273 267 261 258 249 232 227 232 232 229 232 237 239 235 226 223 228 230 225 225 230 231 228
239 240 241 245 248 249 254 258 258 258 257 254 255 260 261 255 254 257 260 260 254 252 255 257 257 248 239 234 213 207 225 247 247 270 287 265 240 217 204 226 251 277 301 290 252 265 281 305 327 295 293 296 298 303 303 301 307 313 319 325 318 307 293 276 269 267 267 262 244 224 222 229 230 233 238 236 234 232 227 227 233 234 232 234 235 234
236 237 237 241 245 244 246 252 252 252 258 258 256 256 253 258 266 257 248 247 246 246 247 242 244 244 236 231 224 226 247 259 252 268 289 271 244 216 208 212 228 255 240 212 241 275 290 306 319 301 289 290 290 299 304 297 299 306 310 312 311 305 298 292 290 287 281 279 278 269 248 246 241 236 229 221 225 234 235 233 236 238 238 239 240 240
233 234 233 234 238 241 244 250 252 253 260 259 254 254 251 252 262 259 246 233 221 226 235 232 236 248 241 231 232 242 260 270 263 269 279 271 233 213 221 216 198 214 223 223 247 288 306 304 311 305 288 289 291 298 307 299 295 300 301 302 301 296 294 297 296 289 284 289 295 299 294 275 252 233 221 215 219 229 235 240 244 244 244 244 242 240
246 243 238 235 237 238 239 245 251 256 261 256 245 248 253 242 238 245 257 218 197 215 246 230 222 223 226 218 218 234 242 245 259 269 266 234 189 209 229 217 182 208 237 253 266 289 302 297 305 299 279 276 282 287 295 293 290 290 290 292 293 290 291 293 290 283 281 289 292 289 287 282 261 245 235 228 227 228 231 237 243 247 250 250 247 241
254 252 246 239 238 237 238 246 253 254 254 247 232 234 240 233 218 218 223 214 209 209 227 216 204 192 200 209 218 235 236 235 248 265 261 215 182 188 209 196 201 234 263 279 278 283 292 297 302 296 285 281 281 283 286 287 289 288 284 281 281 281 284 286 286 283 280 278 279 279 277 270 261 261 256 247 241 237 236 238 242 246 250 251 249 245
253 252 253 250 246 244 245 247 252 254 246 220 179 227 231 224 198 188 185 194 212 208 204 215 211 207 218 231 236 237 236 239 243 250 261 236 190 176 192 206 225 255 281 292 286 288 294 297 296 292 291 290 286 287 287 284 285 285 281 279 277 277 280 281 282 283 282 278 276 276 274 265 257 258 258 253 249 245 242 243 244 246 249 250 249 247
251 246 250 256 255 253 251 246 250 264 251 224 195 259 236 214 194 192 197 201 215 212 211 221 222 225 236 239 234 227 229 238 237 223 242 248 200 181 200 218 236 268 288 284 285 293 297 293 288 286 289 289 287 291 290 283 282 279 276 278 281 283 286 284 280 279 278 278 277 276 272 266 260 257 254 253 254 252 250 247 246 247 248 247 248 247
245 246 250 252 248 246 256 261 258 257 238 215 213 270 277 243 220 213 220 231 239 233 231 240 245 241 231 222 223 229 231 237 238 219 213 218 197 193 215 236 257 287 287 278 286 296 297 288 282 281 285 287 288 291 290 287 284 278 276 280 285 289 289 284 280 278 276 277 278 275 270 265 260 258 255 253 253 253 252 250 249 250 250 249 249 248
247 253 251 249 247 248 253 258 254 245 230 212 206 207 241 242 227 221 229 244 258 261 259 259 259 253 241 230 231 238 236 236 237 215 202 205 208 217 238 257 275 286 276 277 289 295 292 286 280 279 285 288 290 291 289 286 285 282 283 286 286 287 288 287 287 287 285 283 282 277 272 266 262 261 260 258 255 254 254 254 252 251 251 251 253 253
254 255 248 240 244 250 252 251 249 246 242 233 225 221 224 230 227 226 232 245 259 267 269 267 260 255 252 251 251 250 244 237 228 215 210 212 216 230 248 262 269 266 268 279 291 293 289 286 283 284 290 292 292 291 287 285 286 286 286 287 283 284 288 291 292 294 293 293 291 287 282 276 273 271 267 262 259 257 256 256 256 254 253 252 253 254
252 256 261 254 243 243 246 244 244 248 245 239 241 242 241 242 242 241 244 249 256 263 265 264 260 257 257 259 260 257 250 239 225 222 224 222 220 230 248 259 259 257 266 279 288 288 286 286 286 290 293 293 294 293 289 286 285 285 287 288 287 286 287 288 289 291 292 294 295 293 291 288 286 284 280 274 268 261 256 254 255 256 256 256 256 257
256 261 272 270 255 246 243 239 238 242 238 230 237 247 249 250 253 255 258 260 260 260 261 259 259 260 259 260 263 258 248 241 231 227 231 231 227 231 242 246 244 253 266 278 284 286 287 289 293 295 296 295 293 290 287 286 285 285 287 287 287 289 290 289 288 287 287 288 289 290 291 291 291 291 289 285 279 271 263 258 256 256 258 260 262 264
260 264 266 265 261 257 253 247 241 239 235 227 230 242 246 247 253 259 264 264 261 259 260 260 260 263 265 264 260 246 236 234 226 222 229 236 234 233 237 235 236 252 266 273 280 286 290 293 296 296 295 296 294 290 290 290 287 285 285 284 285 288 288 288 286 284 281 281 282 284 286 289 290 291 292 292 288 282 275 268 263 262 262 262 264 267
255 261 264 262 258 258 262 261 252 245 240 229 221 228 240 247 253 258 263 264 262 259 260 262 264 266 269 269 264 256 247 239 230 225 228 234 234 232 234 232 230 245 260 268 274 282 288 291 291 291 294 296 296 295 295 293 288 285 283 283 284 284 284 283 282 280 278 278 280 283 284 285 286 288 291 291 290 289 286 279 271 268 268 268 267 268
Height
3162 3163 3162 3161 3161 3161 3161 3160 3160 3159 3158 3157 3157 3157 3157 3156 3155 3154 3154 3154 3155 3156 3157 3157 3156 3157 3156 3154 3153 3154 3155 3156 3158 3158 3159 3160 3161 3161 3161 3158 3158 3159 3160 3160 3161 3161 3162 3161 3161 3161 3161 3161 3162 3163 3163 3164 3164 3164 3165 3166 3167 3168 3169 3170 3171 3172 3173 3174 3175 3176 3177 3178 3180 3181 3182 3183 3184 3185 3187 3188 3189 3191 3192 3194 3195 3197
3162 3161 3160 3160 3160 3160 3159 3159 3158 3158 3157 3157 3157 3157 3156 3155 3154 3153 3153 3153 3153 3155 3156 3156 3155 3155 3156 3155 3153 3153 3154 3155 3156 3158 3157 3158 3159 3161 3162 3159 3157 3159 3159 3159 3159 3160 3160 3160 3160 3160 3160 3160 3161 3161 3162 3163 3163 3164 3164 3165 3166 3167 3168 3170 3171 3172 3173 3174 3175 3176 3177 3178 3180 3181 3182 3183 3184 3185 3186 3187 3189 3190 3192 3194 3195 3197
3159 3158 3157 3158 3158 3159 3158 3158 3157 3157 3157 3157 3157 3157 3155 3154 3153 3151 3152 3152 3152 3153 3154 3154 3154 3154 3155 3155 3154 3151 3151 3153 3154 3156 3156 3154 3156 3159 3161 3159 3157 3158 3158 3157 3158 3158 3158 3159 3159 3159 3159 3159 3160 3160 3161 3161 3162 3162 3163 3164 3165 3166 3167 3169 3170 3171 3172 3174 3175 3176 3177 3178 3179 3181 3182 3182 3183 3185 3186 3187 3188 3190 3192 3193 3195 3197
3157 3155 3156 3157 3157 3157 3157 3157 3157 3157 3157 3157 3157 3155 3154 3153 3150 3148 3150 3152 3151 3152 3152 3152 3152 3153 3153 3154 3154 3150 3149 3151 3153 3155 3155 3154 3154 3156 3157 3156 3154 3156 3157 3156 3157 3157 3156 3157 3157 3158 3157 3158 3158 3158 3159 3160 3160 3161 3161 3163 3164 3165 3166 3167 3169 3170 3171 3173 3175 3176 3177 3177 3178 3180 3181 3180 3182 3185 3186 3187 3188 3190 3191 3193 3195 3197
3155 3154 3156 3156 3156 3156 3156 3156 3156 3157 3156 3155 3155 3154 3152 3151 3149 3148 3149 3150 3150 3149 3150 3151 3151 3151 3151 3152 3152 3150 3149 3150 3151 3153 3155 3154 3155 3155 3154 3153 3151 3153 3156 3156 3155 3156 3155 3154 3155 3156 3156 3156 3156 3156 3157 3157 3158 3159 3160 3161 3163 3163 3164 3165 3167 3169 3170 3171 3173 3174 3175 3176 3177 3178 3179 3179 3181 3184 3185 3186 3188 3189 3191 3193 3194 3196
3155 3154 3155 3156 3155 3156 3156 3156 3155 3155 3154 3152 3151 3151 3150 3150 3148 3148 3149 3150 3149 3147 3146 3149 3149 3149 3150 3151 3151 3151 3150 3150 3151 3153 3154 3154 3155 3155 3154 3153 3150 3148 3151 3154 3154 3154 3154 3154 3153 3153 3153 3154 3154 3154 3154 3155 3156 3157 3158 3159 3161 3162 3163 3164 3165 3167 3168 3170 3171 3173 3174 3175 3176 3177 3178 3179 3181 3183 3184 3186 3187 3189 3190 3192 3193 3195
3154 3154 3155 3155 3155 3156 3155 3154 3153 3154 3152 3150 3148 3147 3147 3148 3148 3149 3149 3149 3148 3146 3144 3146 3148 3147 3149 3151 3151 3152 3151 3150 3151 3152 3152 3152 3153 3153 3153 3153 3151 3146 3147 3151 3153 3153 3153 3152 3152 3151 3151 3151 3151 3151 3152 3152 3152 3154 3155 3156 3158 3160 3162 3163 3163 3165 3167 3168 3170 3172 3173 3174 3176 3177 3178 3179 3181 3182 3184 3185 3186 3188 3189 3190 3192 3194
3153 3153 3154 3154 3155 3155 3153 3151 3150 3152 3150 3148 3148 3147 3145 3145 3147 3148 3149 3148 3146 3145 3143 3144 3147 3147 3148 3150 3151 3152 3152 3151 3151 3152 3151 3150 3151 3152 3152 3151 3150 3148 3145 3146 3149 3152 3152 3151 3151 3151 3149 3149 3149 3148 3148 3148 3148 3150 3153 3152 3153 3156 3159 3161 3162 3163 3165 3167 3169 3171 3172 3173 3174 3176 3177 3179 3180 3181 3182 3184 3185 3187 3188 3189 3191 3193
3152 3152 3153 3154 3154 3154 3150 3147 3147 3150 3149 3148 3148 3146 3144 3145 3146 3148 3148 3146 3144 3145 3143 3143 3146 3147 3147 3149 3150 3151 3152 3151 3150 3150 3150 3150 3150 3151 3151 3150 3150 3149 3147 3146 3146 3148 3149 3149 3149 3149 3148 3146 3146 3145 3144 3144 3144 3146 3149 3148 3150 3154 3157 3159 3160 3161 3163 3165 3167 3169 3170 3171 3172 3174 3175 3177 3178 3180 3181 3182 3184 3186 3187 3188 3190 3192
3151 3151 3151 3152 3153 3151 3148 3146 3147 3149 3148 3147 3148 3148 3148 3148 3148 3149 3148 3145 3145 3146 3145 3145 3146 3147 3147 3148 3149 3149 3150 3150 3150 3150 3149 3149 3150 3150 3151 3151 3150 3149 3149 3149 3148 3147 3147 3146 3146 3146 3145 3144 3143 3141 3140 3140 3141 3142 3144 3145 3149 3152 3154 3157 3158 3159 3161 3163 3165 3167 3168 3169 3171 3172 3173 3175 3177 3178 3179 3180 3182 3184 3185 3187 3189 3191
3149 3150 3150 3150 3151 3150 3148 3148 3148 3149 3148 3148 3148 3149 3149 3148 3148 3148 3148 3147 3148 3148 3147 3147 3147 3147 3146 3145 3146 3148 3148 3149 3150 3149 3149 3149 3150 3150 3151 3151 3150 3149 3149 3150 3150 3149 3147 3146 3145 3144 3143 3141 3140 3137 3136 3136 3136 3139 3141 3143 3146 3149 3150 3153 3156 3157 3159 3161 3163 3165 3166 3168 3170 3170 3172 3173 3175 3176 3177 3179 3181 3182 3184 3186 3188 3189
3149 3149 3149 3149 3150 3149 3149 3149 3148 3149 3149 3149 3149 3148 3147 3147 3147 3148 3148 3149 3150 3148 3147 3146 3146 3146 3145 3144 3145 3146 3146 3147 3149 3148 3148 3150 3151 3150 3151 3150 3149 3149 3149 3149 3150 3148 3147 3145 3144 3141 3140 3139 3137 3135 3134 3133 3133 3135 3137 3139 3143 3145 3146 3149 3152 3154 3156 3158 3160 3163 3165 3166 3168 3169 3170 3172 3173 3175 3176 3178 3179 3181 3183 3185 3186 3188
3147 3147 3148 3148 3148 3148 3149 3149 3148 3148 3148 3149 3149 3147 3147 3146 3147 3148 3147 3146 3146 3145 3144 3145 3146 3145 3144 3144 3145 3145 3146 3146 3147 3147 3147 3149 3149 3149 3150 3150 3149 3149 3149 3149 3148 3147 3146 3144 3142 3140 3137 3136 3134 3132 3131 3130 3130 3132 3133 3136 3139 3142 3143 3146 3149 3151 3153 3156 3158 3161 3163 3164 3165 3167 3169 3170 3171 3173 3175 3176 3178 3180 3182 3184 3185 3186
3142 3143 3144 3146 3145 3146 3148 3147 3146 3145 3146 3146 3146 3145 3144 3144 3147 3148 3144 3141 3141 3141 3142 3143 3144 3144 3143 3145 3146 3145 3146 3146 3146 3145 3144 3145 3147 3147 3148 3149 3149 3149 3149 3148 3147 3146 3145 3143 3141 3139 3136 3133 3132 3130 3129 3128 3128 3129 3130 3133 3136 3139 3141 3143 3146 3148 3151 3153 3156 3158 3161 3162 3163 3165 3167 3169 3170 3171 3173 3175 3178 3180 3181 3183 3184 3186
3140 3138 3140 3143 3142 3142 3145 3146 3144 3143 3144 3144 3143 3142 3142 3142 3144 3143 3138 3138 3138 3139 3141 3142 3142 3142 3142 3144 3146 3145 3145 3145 3146 3145 3144 3145 3146 3147 3147 3147 3148 3148 3148 3147 3146 3145 3143 3142 3140 3138 3135 3132 3130 3128 3128 3127 3126 3126 3127 3129 3133 3136 3137 3140 3143 3145 3148 3151 3153 3156 3158 3160 3162 3163 3165 3167 3168 3169 3171 3174 3176 3178 3180 3181 3183 3185
3140 3138 3138 3140 3140 3141 3143 3144 3145 3144 3143 3142 3141 3139 3139 3140 3139 3137 3135 3137 3137 3137 3140 3141 3140 3142 3143 3143 3145 3146 3146 3145 3145 3146 3146 3146 3146 3146 3147 3146 3146 3147 3146 3145 3144 3143 3142 3140 3139 3137 3134 3131 3129 3127 3126 3126 3125 3125 3126 3128 3130 3133 3135 3138 3141 3143 3146 3149 3151 3154 3156 3158 3159 3161 3163 3165 3167 3168 3169 3171 3173 3176 3178 3179 3181 3183
3141 3139 3138 3139 3141 3142 3143 3143 3143 3143 3141 3141 3140 3137 3137 3139 3138 3137 3137 3137 3138 3139 3141 3142 3142 3143 3144 3144 3145 3146 3146 3145 3143 3144 3145 3145 3145 3145 3145 3145 3145 3146 3145 3144 3143 3142 3140 3139 3137 3135 3133 3131 3129 3127 3126 3125 3124 3125 3126 3127 3129 3131 3133 3136 3139 3142 3145 3147 3149 3152 3154 3155 3157 3159 3160 3163 3165 3166 3167 3169 3170 3173 3176 3178 3179 3181
3141 3140 3138 3139 3141 3141 3142 3143 3141 3140 3140 3140 3139 3137 3138 3138 3138 3139 3139 3138 3140 3142 3142 3143 3144 3145 3144 3144 3145 3145 3146 3146 3145 3144 3144 3144 3144 3144 3144 3144 3144 3145 3144 3143 3142 3141 3139 3138 3136 3134 3132 3130 3128 3127 3126 3125 3124 3125 3126 3127 3129 3131 3133 3136 3139 3141 3143 3146 3148 3150 3152 3154 3155 3157 3158 3160 3162 3164 3165 3167 3168 3170 3173 3175 3178 3180
3141 3140 3138 3140 3139 3138 3141 3143 3141 3140 3140 3140 3139 3138 3138 3138 3138 3139 3139 3139 3140 3140 3140 3141 3143 3145 3144 3143 3144 3145 3146 3146 3145 3144 3144 3144 3143 3143 3143 3143 3143 3143 3143 3142 3141 3139 3137 3136 3135 3133 3131 3129 3128 3127 3126 3125 3124 3125 3126 3127 3128 3131 3134 3136 3138 3141 3143 3145 3147 3149 3151 3152 3154 3155 3157 3158 3160 3161 3163 3165 3166 3169 3171 3172 3175 3178
3140 3140 3139 3138 3138 3137 3139 3140 3139 3138 3138 3140 3140 3139 3139 3137 3136 3137 3138 3139 3139 3138 3139 3141 3142 3144 3145 3143 3143 3145 3146 3146 3144 3144 3143 3143 3143 3142 3141 3141 3141 3142 3141 3140 3139 3138 3136 3134 3133 3132 3130 3129 3128 3127 3126 3126 3125 3125 3126 3127 3128 3130 3133 3135 3138 3140 3142 3144 3145 3147 3149 3150 3152 3154 3155 3156 3158 3159 3161 3162 3164 3167 3168 3170 3172 3175
3140 3140 3139 3138 3138 3137 3136 3137 3137 3136 3135 3137 3138 3137 3137 3136 3135 3136 3137 3137 3137 3136 3137 3140 3143 3145 3144 3142 3142 3141 3142 3143 3143 3142 3142 3142 3142 3141 3140 3140 3140 3140 3139 3138 3138 3137 3134 3131 3131 3130 3130 3129 3128 3127 3127 3127 3127 3127 3127 3128 3129 3131 3133 3135 3137 3139 3141 3143 3144 3146 3147 3149 3150 3152 3153 3154 3155 3157 3158 3160 3162 3164 3166 3167 3170 3173
3140 3139 3139 3139 3138 3137 3136 3136 3137 3135 3135 3136 3135 3135 3136 3135 3135 3136 3136 3136 3137 3135 3135 3138 3142 3144 3142 3141 3141 3140 3139 3140 3140 3140 3141 3140 3140 3139 3139 3139 3139 3139 3138 3136 3136 3135 3132 3129 3129 3129 3129 3129 3128 3128 3128 3128 3129 3129 3128 3129 3129 3131 3132 3134 3135 3137 3140 3142 3143 3144 3146 3147 3149 3150 3151 3152 3153 3154 3156 3158 3160 3162 3164 3166 3169 3171
3139 3139 3139 3138 3138 3137 3136 3136 3136 3135 3135 3135 3135 3136 3136 3135 3135 3134 3134 3136 3136 3135 3135 3137 3140 3142 3142 3141 3141 3140 3139 3139 3139 3139 3139 3138 3137 3138 3138 3137 3137 3137 3136 3135 3134 3133 3130 3127 3127 3129 3129 3129 3129 3129 3129 3129 3130 3130 3130 3130 3130 3131 3132 3134 3135 3136 3138 3140 3142 3143 3144 3146 3147 3148 3149 3150 3151 3152 3154 3157 3158 3160 3162 3165 3168 3170
3137 3138 3138 3137 3137 3137 3136 3135 3135 3135 3136 3136 3136 3136 3136 3135 3135 3133 3134 3136 3136 3136 3137 3138 3140 3142 3142 3140 3140 3140 3140 3140 3140 3139 3137 3137 3136 3136 3136 3135 3135 3135 3134 3134 3133 3131 3128 3125 3126 3127 3128 3129 3129 3130 3130 3130 3130 3131 3131 3131 3132 3132 3132 3134 3135 3135 3136 3138 3139 3141 3142 3143 3144 3146 3147 3148 3148 3150 3153 3155 3157 3159 3160 3163 3166 3168
3136 3136 3137 3137 3137 3137 3135 3135 3134 3134 3136 3137 3136 3135 3135 3134 3134 3134 3135 3136 3136 3137 3138 3138 3139 3140 3139 3139 3141 3141 3141 3140 3139 3138 3137 3135 3135 3135 3134 3133 3133 3133 3132 3132 3131 3130 3129 3128 3127 3126 3127 3129 3129 3130 3130 3131 3131 3132 3132 3133 3133 3132 3132 3133 3134 3135 3136 3137 3137 3137 3139 3141 3142 3143 3145 3146 3147 3149 3151 3153 3155 3158 3160 3161 3162 3165
3137 3137 3137 3138 3137 3136 3136 3135 3135 3135 3136 3136 3135 3134 3133 3133 3134 3134 3135 3136 3136 3137 3137 3137 3138 3138 3137 3138 3138 3139 3140 3139 3138 3138 3137 3135 3134 3133 3133 3132 3132 3132 3132 3132 3131 3130 3130 3131 3129 3127 3127 3128 3129 3130 3130 3131 3131 3132 3132 3133 3133 3133 3132 3133 3133 3135 3136 3138 3138 3137 3138 3139 3140 3141 3143 3145 3146 3147 3149 3151 3154 3157 3159 3159 3161 3163
3138 3137 3137 3137 3137 3136 3136 3136 3137 3137 3136 3135 3134 3133 3133 3133 3133 3133 3134 3135 3136 3136 3137 3138 3138 3137 3136 3136 3136 3137 3137 3138 3138 3137 3136 3134 3134 3133 3133 3132 3132 3132 3131 3131 3131 3130 3130 3131 3130 3129 3128 3128 3129 3130 3130 3131 3131 3131 3131 3132 3132 3132 3132 3133 3134 3136 3137 3138 3138 3139 3139 3139 3139 3139 3141 3142 3144 3145 3147 3150 3152 3154 3156 3158 3160 3162
3138 3137 3136 3137 3136 3136 3135 3135 3136 3136 3135 3134 3133 3132 3132 3132 3132 3132 3133 3134 3135 3136 3136 3137 3138 3137 3136 3136 3137 3137 3136 3136 3137 3136 3134 3134 3134 3133 3133 3132 3131 3131 3131 3131 3131 3130 3130 3129 3129 3129 3129 3129 3129 3129 3129 3130 3131 3130 3130 3130 3130 3131 3132 3133 3135 3136 3136 3136 3137 3138 3138 3137 3137 3137 3139 3141 3143 3144 3146 3148 3151 3153 3154 3156 3158 3160
3136 3135 3135 3135 3134 3133 3133 3133 3133 3133 3133 3132 3132 3131 3131 3131 3131 3132 3132 3133 3134 3134 3135 3136 3136 3137 3135 3135 3137 3137 3135 3135 3135 3134 3134 3134 3134 3133 3133 3131 3131 3131 3130 3130 3130 3129 3129 3128 3128 3128 3129 3129 3129 3129 3129 3130 3129 3129 3129 3128 3128 3130 3131 3132 3134 3135 3135 3135 3135 3136 3136 3136 3136 3137 3138 3140 3142 3143 3145 3147 3149 3151 3153 3154 3156 3158
3135 3134 3134 3134 3132 3132 3132 3132 3131 3131 3130 3129 3129 3129 3129 3130 3130 3130 3130 3131 3132 3133 3134 3134 3135 3136 3135 3134 3134 3135 3134 3134 3134 3134 3133 3133 3133 3133 3132 3131 3131 3130 3130 3129 3129 3129 3129 3128 3127 3128 3129 3129 3129 3129 3130 3129 3128 3128 3129 3129 3128 3130 3131 3131 3132 3133 3134 3134 3135 3135 3135 3135 3136 3137 3139 3140 3141 3143 3144 3145 3148 3151 3152 3154 3155 3156
3133 3132 3133 3133 3132 3131 3131 3131 3130 3129 3128 3128 3127 3127 3128 3128 3127 3128 3128 3128 3129 3131 3133 3133 3134 3135 3135 3134 3133 3132 3133 3134 3133 3133 3133 3133 3132 3132 3131 3131 3131 3130 3129 3129 3128 3129 3129 3128 3127 3128 3129 3130 3130 3130 3130 3129 3128 3128 3129 3129 3128 3130 3131 3130 3131 3133 3133 3134 3135 3135 3135 3135 3136 3137 3138 3139 3140 3141 3141 3142 3147 3150 3152 3153 3154 3154
3132 3132 3132 3133 3131 3129 3129 3129 3128 3128 3127 3126 3125 3125 3126 3126 3125 3126 3126 3126 3127 3130 3132 3133 3134 3134 3133 3134 3133 3131 3131 3133 3133 3133 3133 3132 3132 3131 3131 3131 3131 3130 3129 3128 3129 3129 3129 3128 3129 3130 3131 3131 3131 3131 3130 3129 3129 3128 3129 3128 3128 3129 3130 3130 3131 3132 3133 3133 3134 3134 3135 3135 3135 3136 3138 3139 3140 3140 3139 3140 3145 3148 3149 3151 3151 3152
3131 3131 3131 3131 3129 3127 3128 3128 3127 3126 3125 3123 3123 3124 3124 3124 3124 3124 3125 3125 3126 3128 3130 3131 3132 3133 3132 3133 3133 3130 3130 3131 3132 3132 3132 3132 3132 3131 3131 3131 3131 3131 3130 3129 3129 3130 3129 3129 3130 3131 3131 3131 3131 3131 3130 3129 3129 3129 3128 3128 3128 3129 3130 3130 3131 3132 3133 3133 3132 3133 3134 3135 3135 3136 3138 3139 3139 3140 3140 3142 3145 3146 3147 3149 3151 3153
3130 3130 3130 3130 3128 3127 3127 3127 3127 3125 3121 3120 3122 3123 3122 3122 3122 3121 3122 3123 3124 3126 3128 3130 3131 3132 3131 3132 3133 3130 3129 3130 3130 3131 3131 3131 3131 3131 3131 3131 3131 3131 3131 3130 3130 3129 3128 3130 3131 3131 3130 3131 3131 3130 3130 3129 3129 3128 3128 3128 3128 3128 3129 3130 3130 3130 3131 3132 3132 3132 3132 3133 3134 3136 3138 3139 3140 3141 3142 3145 3147 3147 3147 3149 3152 3153
3128 3128 3128 3128 3127 3125 3126 3127 3125 3122 3119 3120 3121 3121 3121 3121 3121 3121 3120 3121 3122 3124 3126 3128 3129 3130 3130 3132 3131 3128 3128 3130 3129 3129 3130 3130 3131 3131 3131 3130 3131 3131 3131 3131 3131 3130 3128 3129 3131 3130 3130 3130 3130 3129 3129 3129 3129 3128 3128 3128 3128 3128 3128 3129 3129 3130 3130 3131 3132 3132 3132 3133 3135 3137 3138 3140 3141 3142 3143 3145 3147 3148 3148 3150 3152 3153
3126 3126 3126 3126 3125 3123 3123 3123 3121 3119 3119 3120 3120 3120 3121 3121 3121 3121 3119 3119 3121 3123 3125 3126 3128 3129 3129 3131 3130 3127 3126 3128 3129 3128 3129 3130 3130 3130 3130 3130 3131 3131 3131 3132 3131 3129 3128 3129 3131 3129 3128 3129 3128 3128 3128 3128 3128 3128 3128 3128 3128 3128 3128 3128 3129 3130 3130 3131 3132 3132 3132 3134 3136 3137 3138 3139 3141 3143 3143 3144 3145 3146 3147 3149 3151 3152
3123 3123 3123 3123 3122 3121 3120 3119 3118 3117 3116 3117 3118 3119 3119 3119 3120 3120 3119 3119 3121 3122 3123 3125 3126 3127 3128 3129 3129 3127 3126 3128 3128 3128 3128 3128 3129 3130 3131 3131 3130 3130 3131 3131 3131 3129 3127 3129 3130 3129 3128 3128 3128 3127 3127 3127 3128 3128 3127 3128 3127 3127 3127 3128 3128 3129 3130 3131 3132 3132 3132 3134 3135 3137 3137 3138 3139 3141 3143 3143 3144 3145 3146 3147 3149 3150
3119 3120 3121 3120 3119 3119 3118 3116 3115 3113 3111 3113 3116 3117 3117 3118 3118 3119 3119 3118 3120 3121 3122 3124 3124 3125 3126 3127 3127 3126 3126 3128 3128 3128 3128 3129 3129 3130 3132 3131 3130 3130 3131 3131 3130 3128 3127 3128 3129 3129 3128 3128 3127 3127 3127 3127 3127 3127 3127 3127 3127 3127 3127 3127 3127 3127 3128 3129 3131 3133 3133 3133 3134 3135 3136 3137 3138 3139 3141 3143 3144 3144 3145 3146 3147 3149
3115 3116 3118 3117 3116 3116 3116 3114 3112 3110 3109 3111 3114 3115 3116 3116 3116 3116 3116 3116 3118 3120 3120 3121 3122 3123 3124 3124 3124 3125 3126 3128 3127 3127 3127 3128 3129 3130 3131 3130 3130 3130 3131 3131 3129 3127 3127 3128 3128 3128 3128 3127 3127 3126 3126 3126 3126 3126 3126 3126 3126 3126 3126 3126 3127 3127 3126 3126 3128 3131 3133 3133 3133 3134 3135 3136 3137 3138 3140 3141 3142 3143 3144 3145 3146 3147
3111 3112 3113 3112 3112 3113 3113 3111 3109 3108 3109 3111 3112 3112 3113 3113 3114 3114 3112 3112 3115 3118 3117 3118 3119 3121 3121 3122 3124 3125 3126 3126 3126 3126 3126 3127 3128 3129 3129 3129 3130 3131 3130 3129 3128 3126 3126 3127 3127 3127 3127 3127 3126 3126 3125 3125 3125 3125 3125 3125 3125 3125 3125 3125 3126 3126 3126 3126 3126 3129 3132 3133 3132 3133 3134 3135 3136 3137 3138 3138 3139 3140 3141 3143 3143 3144
3108 3108 3109 3108 3108 3110 3111 3109 3108 3108 3108 3109 3110 3111 3111 3111 3113 3113 3111 3111 3115 3116 3115 3116 3118 3119 3119 3121 3123 3124 3124 3124 3125 3124 3125 3126 3128 3128 3128 3128 3129 3130 3129 3127 3126 3126 3125 3125 3126 3127 3126 3126 3126 3125 3124 3124 3124 3124 3124 3124 3124 3124 3124 3124 3124 3125 3126 3126 3126 3127 3130 3132 3131 3130 3131 3132 3133 3134 3135 3136 3136 3138 3139 3140 3141 3141
3105 3105 3106 3106 3106 3107 3107 3107 3107 3107 3106 3106 3108 3110 3110 3110 3110 3110 3110 3112 3114 3113 3113 3115 3117 3118 3119 3120 3122 3122 3122 3123 3123 3123 3124 3125 3126 3127 3128 3128 3128 3127 3127 3127 3126 3126 3125 3124 3124 3125 3125 3125 3125 3125 3124 3123 3123 3123 3123 3123 3123 3123 3123 3123 3123 3123 3124 3125 3125 3126 3128 3129 3129 3128 3129 3130 3130 3131 3132 3133 3134 3135 3136 3137 3138 3138
3104 3103 3104 3105 3105 3105 3104 3105 3106 3105 3104 3104 3105 3107 3108 3107 3108 3108 3109 3110 3111 3111 3112 3113 3115 3117 3117 3118 3120 3121 3120 3121 3122 3123 3123 3124 3124 3126 3127 3127 3126 3126 3126 3127 3126 3125 3124 3123 3123 3123 3123 3124 3123 3123 3123 3123 3122 3122 3121 3121 3121 3121 3121 3122 3122 3122 3122 3122 3123 3124 3125 3127 3127 3127 3127 3128 3128 3129 3130 3131 3132 3132 3133 3134 3135 3136
3102 3102 3102 3102 3104 3103 3103 3103 3103 3103 3103 3104 3105 3107 3107 3106 3107 3107 3108 3108 3109 3111 3112 3112 3114 3116 3116 3117 3119 3119 3118 3120 3121 3122 3123 3123 3123 3124 3125 3125 3125 3125 3126 3126 3125 3124 3123 3122 3122 3122 3122 3122 3122 3122 3122 3122 3122 3121 3120 3120 3120 3120 3120 3120 3120 3120 3120 3120 3121 3122 3123 3124 3125 3126 3126 3126 3127 3127 3128 3128 3129 3130 3131 3131 3132 3133
3101 3101 3100 3100 3102 3103 3102 3102 3102 3102 3104 3105 3105 3106 3106 3105 3106 3106 3106 3107 3108 3110 3111 3111 3113 3114 3115 3116 3117 3116 3117 3118 3120 3122 3123 3122 3122 3124 3124 3124 3123 3124 3124 3124 3123 3123 3122 3121 3121 3121 3121 3121 3121 3121 3121 3120 3120 3120 3120 3119 3119 3118 3118 3119 3118 3118 3119 3119 3119 3120 3120 3122 3123 3123 3124 3124 3124 3125 3125 3126 3127 3127 3128 3128 3129 3130
3100 3099 3097 3098 3100 3100 3100 3101 3101 3101 3103 3104 3104 3104 3103 3103 3104 3105 3105 3105 3107 3108 3109 3110 3111 3113 3113 3114 3115 3115 3116 3117 3118 3120 3121 3121 3122 3123 3123 3123 3122 3123 3123 3122 3122 3121 3121 3120 3120 3120 3120 3120 3120 3120 3119 3119 3119 3118 3118 3118 3118 3118 3117 3117 3117 3117 3117 3117 3117 3117 3118 3119 3120 3121 3121 3122 3122 3122 3123 3123 3124 3125 3125 3125 3126 3126
3097 3096 3094 3095 3096 3097 3098 3099 3100 3100 3100 3102 3102 3101 3099 3101 3104 3105 3104 3105 3106 3106 3107 3107 3108 3110 3110 3111 3112 3113 3114 3115 3117 3118 3119 3119 3120 3121 3120 3120 3121 3122 3121 3121 3121 3120 3119 3119 3118 3118 3118 3118 3118 3118 3118 3117 3117 3117 3117 3117 3117 3116 3116 3116 3116 3116 3115 3115 3115 3115 3116 3116 3117 3118 3118 3119 3119 3120 3120 3121 3121 3122 3122 3123 3123 3124
3093 3093 3094 3094 3094 3095 3096 3096 3096 3097 3098 3099 3099 3098 3098 3100 3103 3104 3103 3104 3104 3103 3103 3104 3105 3106 3107 3107 3108 3110 3111 3113 3115 3115 3116 3117 3118 3118 3117 3118 3120 3121 3120 3120 3119 3119 3118 3117 3117 3116 3116 3116 3116 3117 3116 3116 3116 3116 3115 3115 3115 3115 3115 3115 3115 3115 3114 3114 3114 3114 3114 3114 3114 3115 3116 3116 3117 3117 3118 3118 3118 3119 3119 3120 3120 3121
3091 3091 3092 3092 3092 3093 3094 3092 3092 3094 3095 3095 3096 3095 3096 3099 3101 3101 3101 3101 3100 3100 3100 3101 3102 3103 3103 3104 3105 3106 3108 3111 3112 3112 3113 3115 3116 3116 3116 3117 3118 3119 3119 3119 3118 3117 3116 3116 3115 3115 3115 3115 3115 3115 3115 3115 3115 3114 3114 3114 3114 3114 3114 3114 3114 3114 3113 3113 3112 3112 3112 3112 3112 3112 3113 3113 3114 3114 3114 3115 3115 3115 3116 3117 3118 3118
3090 3089 3089 3089 3090 3091 3090 3089 3090 3091 3091 3092 3093 3094 3095 3098 3099 3098 3098 3097 3097 3097 3097 3098 3100 3100 3100 3101 3102 3102 3104 3107 3109 3109 3109 3110 3112 3113 3114 3115 3116 3117 3117 3117 3116 3116 3115 3115 3114 3114 3113 3113 3113 3113 3113 3113 3113 3113 3113 3113 3113 3113 3113 3112 3112 3112 3112 3112 3111 3111 3110 3110 3110 3110 3110 3110 3111 3111 3111 3112 3112 3112 3113 3114 3115 3115
3088 3087 3087 3087 3088 3089 3088 3087 3088 3089 3089 3091 3093 3093 3095 3096 3095 3094 3094 3094 3094 3094 3094 3095 3096 3097 3097 3098 3099 3099 3100 3103 3105 3106 3107 3108 3109 3110 3111 3112 3113 3114 3115 3115 3115 3115 3114 3114 3113 3113 3112 3112 3112 3112 3111 3112 3111 3111 3111 3111 3111 3111 3111 3111 3111 3110 3110 3110 3110 3109 3109 3109 3108 3108 3108 3108 3108 3108 3108 3109 3109 3109 3110 3111 3111 3112